EW4498 Weather Reports


time (UTC)temp
C
wind
direction
speed
KPH
gust
KPH
rain 1hr
cm
rain 24hr
cm
rain mn
cm
humidity
%
barometer
mb
20260901173151 18 221 3.2 8.0 0.00 0.15 0.13 76 1013.0
20260901171544 18 259 1.6 9.7 0.00 0.15 0.13 75 1012.9
20260901170146 18 215 3.2 12.9 0.00 0.15 0.13 74 1012.9
20260901164556 18 229 1.6 8.0 0.00 0.15 0.13 75 1012.8
20260901163006 19 232 3.2 9.7 0.00 0.15 0.13 74 1012.8
20260901161627 19 238 3.2 16.1 0.00 0.15 0.13 73 1012.6
20260901160050 19 226 4.8 12.9 0.00 0.15 0.13 74 1012.6
20260901154602 18 239 6.4 14.5 0.00 0.18 0.13 77 1012.6
20260901153139 18 246 6.4 17.7 0.00 0.18 0.13 77 1012.5
20260901151602 18 236 4.8 14.5 0.00 0.18 0.13 80 1012.4
20260901144543 18 244 6.4 14.5 0.00 0.20 0.13 78 1012.4
20260901143044 18 225 3.2 14.5 0.08 0.20 0.13 78 1012.3
20260901141637 19 239 8.0 19.3 0.08 0.20 0.13 78 1012.4
20260901134553 19 230 3.2 11.3 0.08 0.20 0.13 81 1012.2
20260901133042 21 211 4.8 16.1 0.00 0.13 0.05 71 1012.1
20260901131635 20 225 6.4 17.7 0.00 0.13 0.05 73 1012.0
20260901130059 19 229 3.2 14.5 0.00 0.13 0.05 77 1012.0
20260901124548 19 205 0.0 9.7 0.00 0.13 0.05 77 1011.9
20260901123003 18 214 4.8 8.0 0.00 0.13 0.05 75 1011.8
20260901121556 18 273 1.6 8.0 0.00 0.13 0.05 76 1011.9
20260901120055 20 257 4.8 12.9 0.00 0.13 0.05 70 1011.9
20260901114649 21 234 3.2 11.3 0.03 0.13 0.05 68 1011.7
20260901113052 21 214 3.2 12.9 0.03 0.13 0.05 64 1011.7
20260901111544 21 237 4.8 16.1 0.03 0.13 0.05 65 1011.7
20260901110015 21 324 4.8 17.7 0.03 0.13 0.05 67 1011.6
20260901103155 21 203 4.8 14.5 0.00 0.10 0.03 72 1011.6
20260901101548 20 221 11.3 22.5 0.00 0.10 0.03 73 1011.5
20260901100137 20 250 3.2 14.5 0.00 0.10 0.03 73 1011.5
20260901094544 20 238 9.7 16.1 0.00 0.30 0.03 74 1011.4
20260901093139 19 263 3.2 12.9 0.00 0.30 0.03 78 1011.3
20260901091554 18 231 9.7 16.1 0.00 0.30 0.03 79 1011.3
20260901090145 18 238 1.6 14.5 0.00 0.30 0.03 77 1011.2
20260901084609 19 219 6.4 16.1 0.00 0.30 0.03 77 1011.1
20260901083103 18 242 3.2 9.7 0.00 0.30 0.03 81 1011.0
20260901081554 18 284 1.6 11.3 0.00 0.30 0.03 80 1010.9
20260901080101 18 285 1.6 14.5 0.00 0.30 0.03 80 1010.6
20260901074548 17 269 3.2 12.9 0.00 0.33 0.03 84 1010.5
20260901073044 17 293 1.6 12.9 0.00 0.33 0.03 86 1010.3
20260901071540 16 300 3.2 9.7 0.00 0.33 0.03 88 1010.2
20260901070045 16 309 1.6 9.7 0.00 0.33 0.03 89 1010.1
20260901064537 16 269 1.6 12.9 0.00 0.36 0.03 91 1010.0
20260901063047 16 266 3.2 12.9 0.00 0.36 0.03 92 1009.9
20260901061530 16 271 0.0 8.0 0.00 0.36 0.03 93 1009.8
20260901060027 15 301 0.0 8.0 0.00 0.36 0.03 93 1009.6
20260901054526 15 237 1.6 9.7 0.00 0.36 0.03 93 1009.6
20260901053024 15 257 1.6 6.4 0.00 0.36 0.03 93 1009.4
20260901051522 15 238 1.6 8.0 0.00 0.36 0.03 93 1009.3
20260901050017 15 246 0.0 0.0 0.00 0.36 0.03 93 1009.2
20260901044514 14 246 0.0 0.0 0.00 0.36 0.03 93 1009.1
20260901043012 14 246 0.0 0.0 0.00 0.36 0.03 93 1009.0
20260901041509 14 246 0.0 0.0 0.00 0.36 0.03 92 1008.8
20260901040008 14 246 0.0 0.0 0.00 0.36 0.03 93 1008.7
20260901034518 14 234 0.0 0.0 0.03 0.36 0.03 93 1008.8
20260901033006 14 228 0.0 0.0 0.03 0.36 0.03 93 1008.7
20260901031508 13 228 0.0 0.0 0.03 0.36 0.03 93 1008.6
20260901030004 13 228 0.0 0.0 0.03 0.36 0.03 93 1008.6
20260901024503 13 228 0.0 0.0 0.00 0.33 0.00 92 1008.5
20260901023002 13 228 0.0 0.0 0.00 0.33 0.00 93 1008.5
20260901021501 13 227 0.0 0.0 0.00 0.33 0.00 92 1008.5
20260901020100 13 226 0.0 0.0 0.00 0.33 0.00 92 1008.4
20260901014559 14 226 0.0 0.0 0.00 0.33 0.00 92 1008.3
20260901013116 14 226 0.0 0.0 0.00 0.33 0.00 92 1008.3
20260901011556 13 226 0.0 0.0 0.00 0.33 0.00 92 1008.1
20260901010057 14 226 0.0 0.0 0.00 0.33 0.00 92 1008.1
20260901004552 14 226 0.0 0.0 0.00 0.33 0.00 92 1008.1
20260901003052 14 228 0.0 0.0 0.00 0.33 0.00 92 1008.1
20260901001553 14 237 0.0 0.0 0.00 0.33 0.00 92 1008.1
20260901000050 14 237 0.0 4.8 0.00 0.33 0.00 92 1008.1
20260831234553 14 246 0.0 0.0 0.00 0.33 0.00 91 1008.0
20260831233054 14 246 0.0 0.0 0.00 0.33 0.00 91 1008.0
20260831231547 15 246 0.0 0.0 0.00 0.33 0.00 91 1008.0
20260831230044 15 247 0.0 4.8 0.00 0.33 0.00 91 1008.0
20260831224543 15 254 0.0 4.8 0.00 0.33 0.00 91 1007.9
20260831223051 15 216 3.2 6.4 0.00 0.33 0.00 91 1007.9
20260831221537 15 205 0.0 0.0 0.00 0.33 0.00 91 1007.9
20260831220032 15 204 0.0 0.0 0.00 0.33 0.00 91 1007.9
20260831214535 15 204 0.0 0.0 0.00 0.33 0.33 91 1008.0
20260831213034 15 204 0.0 0.0 0.00 0.33 0.33 91 1007.9
20260831211534 15 204 0.0 0.0 0.00 0.33 0.33 91 1007.8
20260831210036 15 204 0.0 0.0 0.00 0.33 0.33 91 1007.8
20260831204530 15 200 0.0 0.0 0.00 0.33 0.33 91 1007.7
20260831203056 15 200 0.0 0.0 0.03 0.33 0.33 91 1007.6
20260831201543 16 200 0.0 0.0 0.03 0.33 0.33 90 1007.4
20260831200030 16 200 0.0 0.0 0.03 0.33 0.33 90 1007.4
20260831194537 16 200 0.0 0.0 0.03 0.33 0.33 89 1007.2
20260831193112 16 200 0.0 0.0 0.00 0.33 0.33 89 1007.2
20260831191539 16 200 0.0 6.4 0.00 0.33 0.33 89 1007.3
20260831190016 16 225 0.0 8.0 0.00 0.33 0.33 88 1007.3
20260831184552 16 223 1.6 8.0 0.00 0.33 0.33 88 1007.3
20260831183148 16 223 0.0 4.8 0.00 0.33 0.33 87 1006.9
20260831181603 16 225 3.2 9.7 0.00 0.33 0.33 87 1006.9
20260831180147 16 208 1.6 8.0 0.00 0.33 0.33 88 1006.6
20260831174544 16 199 1.6 6.4 0.00 0.33 0.33 87 1006.6